User: anonymous   Login
Location: Caltech
(34.1382°N, 118.1253°W)
Time: 19:53:49
(UTC-08:00)
Language:

ALOS - Orbit

View from above orbital plane
View from above orbital plane
View from above satellite
View from above satellite

Ground track
Ground track

The orbit data is extracted from the following two-line orbital elements,

1 28931U 06002A   17054.21109088  .00000227  00000-0  53555-4 0  9995
2 28931  97.8565  87.2010 0001162  42.8725 317.2567 14.62315021590809
Epoch (UTC): 23 February 2017 05:03:58
Eccentricity: 0.0001162
inclination: 97.8565°
perigee height: 685 km
apogee height: 686 km
right ascension of ascending node: 87.2010°
argument of perigee: 42.8725°
revolutions per day: 14.62315021
mean anomaly at epoch: 317.2567°
orbit number at epoch: 59080

The dashed part of the orbit path shows where the satellite is in the earth's shadow,  

DLR